Location: Bogotá
(4.6533°N, 74.0837°W)
Time: 20:18:03
(UTC+00:00)

ISS - Pass Details

Date: 06 May 2026
Orbit: 414 x 424 km, 51.6° (Epoch: 10 May)

Event Time Altitude Azimuth Distance (km) Brightness Sun altitude
Rises 23:17:25 0° 201° (SSW) 2,345 0.1 -4.5°
Reaches altitude 10° 23:19:38 10° 192° (SSW) 1,480 -1.0 -5.0°
Maximum altitude 23:22:41 33° 125° (SE) 708 -3.1 -5.7°
Drops below altitude 10° 23:25:42 10° 59° (ENE) 1,474 -1.4 -6.5°
Sets 23:27:54 0° 49° (NE) 2,333 -0.3 -7.0°
